Skip Page Navigation
NASA JPL Caltech
NASA Logo - Jet Propulsion Laboratory + View the NASA Portal
+ Center for Near-Earth Object Studies
JPL Home Earth Solar System Stars & Galaxies Technology
JPL Solar System Dynamics
BODIES ORBITS EPHEMERIDES TOOLS PHYSICAL DATA DISCOVERY FAQ SITE MAP
JPL Small-Body Database Browser
Search: [ help ]  
344185 (2001 DE106)
Classification: Jupiter Trojan          SPK-ID: 2344185
Ephemeris | Orbit Diagram | Orbital Elements | Mission Design | Physical Parameters | Discovery Circumstances ]

[ show orbit diagram ]
Orbital Elements at Epoch 2459000.5 (2020-May-31.0) TDB
Reference: JPL 12 (heliocentric ecliptic J2000)
 Element Value Uncertainty (1-sigma)   Units 
e .11889112092104 1.2271e-07  
a 5.285735585416036 2.4332e-07 au
q 4.657308556773694 6.6001e-07 au
i 17.61233051040745 1.4882e-05 deg
node 324.3565469968938 2.3574e-05 deg
peri 141.7532476297565 6.6134e-05 deg
M 240.3106407899938 7.279e-05 deg
tp 2460476.239218910325
(2024-Jun-14.73921891)
0.00097164 TDB
period 4438.708021450435
12.15
0.00030649
8.391e-07
d
yr
n .08110468142087052 5.6003e-09 deg/d
Q 5.914162614058379 2.7225e-07 au
  Orbit Determination Parameters
   # obs. used (total)      163  
   data-arc span      6809 days (18.64 yr)  
   first obs. used      2001-02-02  
   last obs. used      2019-09-25  
   planetary ephem.      DE431  
   SB-pert. ephem.      SB431-N16  
   condition code      0  
   norm. resid. RMS      .55321  
   source      ORB  
   producer      Otto Matic  
   solution date      2019-Nov-08 10:23:10  

Additional Information
 Earth MOID = 3.69287 au 
 Jupiter MOID = .608057 au 
 T_jup = 2.892 
[ show covariance matrix ]

Ephemeris | Orbit Diagram | Orbital Elements | Mission Design | Physical Parameters | Discovery Circumstances ]

Physical Parameter Table
Parameter Symbol Value Units Sigma Reference Notes
absolute magnitude H 13.1   n/a MPO455506  

344185 (2001 DE106)          Discovered 2001-Feb-20 by LINEAR at Socorro
Reference: 20121128/Numbers.arcLast Updated: 2012-12-03
Ephemeris | Orbit Diagram | Orbital Elements | Mission Design | Physical Parameters | Discovery Circumstances ]
ABOUT SSD CREDITS/AWARDS PRIVACY/COPYRIGHT GLOSSARY LINKS
FirstGov 2020-Aug-08 15:52 UT
(server date/time)  
NASA Home Page
Site Manager:   Ryan S. Park
Webmaster  Alan B. Chamberlin